TimeEST,TemperatureF,Dew PointF,Humidity,Sea Level PressureIn,VisibilityMPH,Wind Direction,Wind SpeedMPH,Gust SpeedMPH,PrecipitationIn,Events,Conditions,WindDirDegrees,DateUTC
12:53 AM,66.0,64.0,93,29.95,10.0,Calm,Calm,-,N/A,,Scattered Clouds,0,2012-12-07 05:53:00
1:53 AM,69.1,66.9,93,29.94,10.0,East,5.8,-,N/A,,Overcast,90,2012-12-07 06:53:00
2:53 AM,70.0,68.0,93,29.92,10.0,South,6.9,-,0.01,Rain,Light Rain,180,2012-12-07 07:53:00
3:53 AM,68.0,66.9,96,29.91,10.0,Calm,Calm,-,0.00,,Scattered Clouds,0,2012-12-07 08:53:00
4:53 AM,66.9,66.0,97,29.92,1.8,Calm,Calm,-,N/A,,Partly Cloudy,0,2012-12-07 09:53:00
5:10 AM,66.2,66.2,100,29.93,0.8,Calm,Calm,-,N/A,,Mist,0,2012-12-07 10:10:00
5:39 AM,64.4,64.4,100,29.94,1.2,Calm,Calm,-,N/A,,Scattered Clouds,0,2012-12-07 10:39:00
5:53 AM,64.0,64.0,100,29.94,0.8,Calm,Calm,-,N/A,,Mist,0,2012-12-07 10:53:00
5:58 AM,64.4,64.4,100,29.94,0.8,Calm,Calm,-,N/A,,Clear,0,2012-12-07 10:58:00
6:15 AM,64.4,64.4,100,29.94,1.0,ENE,3.5,-,N/A,,Mostly Cloudy,60,2012-12-07 11:15:00
6:22 AM,64.4,64.4,100,29.94,3.0,Calm,Calm,-,0.00,Rain,Light Rain,0,2012-12-07 11:22:00
6:35 AM,68.0,66.2,94,29.95,1.8,Calm,Calm,-,0.19,Rain,Heavy Rain,0,2012-12-07 11:35:00
6:43 AM,69.8,68.0,94,29.95,3.0,Variable,3.5,-,0.23,Rain,Heavy Rain,0,2012-12-07 11:43:00
6:53 AM,69.1,68.0,96,29.95,10.0,ENE,4.6,-,0.23,Rain,Light Rain,70,2012-12-07 11:53:00
7:46 AM,71.6,69.8,94,29.96,10.0,Calm,Calm,-,0.00,,Overcast,0,2012-12-07 12:46:00
7:53 AM,71.1,69.1,93,29.96,10.0,Calm,Calm,-,0.00,,Mostly Cloudy,0,2012-12-07 12:53:00
8:53 AM,75.9,70.0,82,29.97,10.0,SE,4.6,-,N/A,,Clear,130,2012-12-07 13:53:00
9:39 AM,75.2,68.0,78,29.99,10.0,SE,9.2,-,N/A,,Mostly Cloudy,130,2012-12-07 14:39:00
9:53 AM,77.0,66.9,71,29.99,10.0,SSE,8.1,-,N/A,,Mostly Cloudy,160,2012-12-07 14:53:00
10:10 AM,77.0,68.0,74,29.99,10.0,SE,8.1,-,N/A,,Scattered Clouds,140,2012-12-07 15:10:00
10:53 AM,79.0,68.0,69,29.98,10.0,SE,8.1,-,N/A,,Partly Cloudy,140,2012-12-07 15:53:00
11:53 AM,80.1,66.9,64,29.97,10.0,SE,9.2,-,N/A,,Partly Cloudy,130,2012-12-07 16:53:00
12:53 PM,79.0,66.9,66,29.94,10.0,ESE,8.1,-,N/A,,Scattered Clouds,110,2012-12-07 17:53:00
1:53 PM,79.0,68.0,69,29.91,10.0,SSE,9.2,-,N/A,,Partly Cloudy,150,2012-12-07 18:53:00
2:53 PM,79.0,66.9,66,29.91,10.0,East,11.5,-,N/A,,Partly Cloudy,90,2012-12-07 19:53:00
3:53 PM,78.1,68.0,71,29.91,10.0,ESE,10.4,-,N/A,,Scattered Clouds,110,2012-12-07 20:53:00
4:53 PM,75.9,68.0,76,29.93,10.0,ESE,6.9,-,N/A,,Scattered Clouds,120,2012-12-07 21:53:00
5:53 PM,73.0,68.0,84,29.94,10.0,ESE,4.6,-,N/A,,Scattered Clouds,120,2012-12-07 22:53:00
6:53 PM,72.0,68.0,87,29.96,10.0,ESE,4.6,-,N/A,,Mostly Cloudy,120,2012-12-07 23:53:00
7:53 PM,71.6,68.0,88,29.97,10.0,ESE,5.8,-,N/A,,Clear,120,2012-12-08 00:53:00
8:53 PM,71.1,68.0,90,29.98,10.0,ESE,5.8,-,N/A,,Clear,110,2012-12-08 01:53:00
9:53 PM,71.1,68.0,90,29.99,10.0,ESE,4.6,-,N/A,,Clear,120,2012-12-08 02:53:00
10:53 PM,68.0,64.9,90,29.99,10.0,East,4.6,-,N/A,,Clear,90,2012-12-08 03:53:00
11:53 PM,68.0,64.9,90,29.99,10.0,Calm,Calm,-,N/A,,Clear,0,2012-12-08 04:53:00